Regional Weather Roundup
Issued by NWS Portland, ME

Current Version | Previous Version | Text Only | Print | Product List | Glossary Off
Versions: 1 2 3 4 5 6 7 8 9 10 11 12 13 14 15 16 17 18 19 20 21 22 23 24 25 26 27 28 29 30 31 32 33 34 35 36 37 38 39 40 41 42 43 44 45 46 47 48 49 50
407 ASUS41 KGYX 280505 RWRGYX WEATHER ROUNDUP FOR MAINE AND NEW HAMPSHIRE NATIONAL WEATHER SERVICE GRAY ME 100 AM EDT TUE MAR 28 2017 MEZ002-005-006-010-012-015-018-020-021-024-026-027-029-280600- MAINE CITY SKY/WX TMP DP RH WIND PRES REMARKS PORTLAND CLOUDY 33 32 96 N7 30.04S SANFORD CLOUDY 33 32 96 W3 30.05R BAR HARBOR CLOUDY N/A N/A N/A NE8 30.02F WISCASSET CLOUDY 33 32 96 N5 30.04S FOG ROCKLAND CLOUDY 33 32 96 N13 30.01S FOG FRYEBURG CLOUDY 32 31 96 NE3 30.02F LEWISTONAUBURN CLOUDY 32 31 96 N7 30.03F AUGUSTA CLOUDY 30 28 92 N8 30.03S FOG WATERVILLE CLOUDY 30 29 96 N8 30.01S FOG BANGOR CLOUDY 30 29 96 N7 30.04S FOG GREENVILLE N/A 25 25 100 E7 29.97F MILLINOCKET CLOUDY 28 27 96 N3 30.08S HOULTON LGT SNOW 26 24 92 VRB3 30.06F FOG PRESQUE ISLE FLURRIES 26 23 88 E5 30.09F FRENCHVILLE CLOUDY 23 19 85 E8 30.05F CARIBOU CLOUDY 25 22 88 E5 30.07F $$ NHZ002-005-008-009-011-012-014-280600- NEW HAMPSHIRE CITY SKY/WX TMP DP RH WIND PRES REMARKS PORTSMOUTH CLOUDY 34 32 92 N6 30.03S ROCHESTER CLOUDY 33 30 88 N3 30.02S NASHUA CLOUDY 36 36 100 CALM 30.03F MANCHESTER CLOUDY 36 32 85 CALM 30.02S CONCORD CLOUDY 35 32 88 CALM 30.02F LACONIA CLOUDY 33 31 92 CALM 30.03R PLYMOUTH CLOUDY 33 33 99 CALM 30.02R BERLIN CLOUDY 33 30 88 CALM 29.97F WHITEFIELD CLOUDY 34 30 85 CALM 29.96F JAFFREY FOG 34 33 96 CALM 30.00S VSB 1/2 KEENE CLOUDY 35 34 96 CALM 30.02S FOG LEBANON CLOUDY 35 34 96 CALM 30.00R MT WASHINGTON FOG 34 34 100 W36 N/A VSB 1/16WCI 19 $$ VTZ005-007-008-280600- VERMONT CITY SKY/WX TMP DP RH WIND PRES REMARKS ST JOHNSBURY N/A 35 34 96 MISG 29.97R MONTPELIER CLOUDY 35 34 96 S5 29.99S BURLINGTON CLOUDY 38 37 97 CALM 29.94S $$ MAZ007-012-024-CTZ003-RIZ002-NYZ038-NYZ072-280600- SOUTHERN NEW ENGLAND AND NY CITY SKY/WX TMP DP RH WIND PRES REMARKS BOSTON CLOUDY 37 37 100 N3 30.04S WORCESTER FOG 35 33 92 CALM 30.00S VSB 1/4 NANTUCKET CLOUDY 38 37 97 N12 30.01S FOG PROVIDENCE CLOUDY 41 39 93 N6 30.04R FOG HARTFORD CLOUDY 39 37 92 W5 30.03S ALBANY CLOUDY 44 40 85 S3 29.98S NEW YORK CITY CLOUDY 42 39 89 NE10 29.99F $$ ANZ081-ANZ082-ANZ150-NHZ014-MEZ023>029-280600- COASTAL MARINE OBSERVATIONS STATION/POSITION TIME TEMP WIND PRES WAVE AIR SEA DIR/SP/G HT/PER (UTC) (F) (DEG/KT/KT) (MB) (FT/S) MOUNT DESERT ROC 0500 36 1014.3F MATINICUS ROCK 0400 36 40/ 24/ 26 1014.1F ISLE OF SHOALS 0400 35 350/ 10/ 11 1016.8F JEFFREYS LEDGE 0436 42 N/A 6/ 5 CASHES LEDGE BUO 0350 38 40 1014.0 6/ 7 GEORGES BANK BUO 0350 46 40 1014.7 5/ 7 $$ .............KEY.............. WCI - WIND CHILL TC - TEMPERATURE IN CELSIUS VSB - VISIBILITY IN MILES HX - HEAT INDEX FAIR- INDICATES FEW OR NO CLOUDS BELOW 12,000 FT, WITH NO SIGNIFICANT WEATHER AND/OR OBSTRUCTIONS TO VISIBILITY.

USA.gov is the U.S. government's official web portal to all federal, state and local government web resources and services.